CW5834 Weather Reports


time (UTC)temp
F
wind
direction
speed
knots
gust
knots
rain 1hr
in
rain 24hr
in
rain mn
in
humidity
%
barometer
mb
20260505152557 70 203 1.7 4.3 0.00 0.00 0.00 52 1016.3
20260505151517 69 203 2.6 6.1 0.00 0.00 0.00 53 1016.2
20260505150517 69 203 0.9 4.3 0.00 0.00 0.00 54 1016.1
20260505140518 68 225 2.6 7.0 0.00 0.00 0.00 55 1016.0
20260505124517 61 180 0.9 1.7 0.00 0.00 0.00 67 1015.8
20260505123517 60 0.0 1.7 0.00 0.00 0.00 73 1015.9
20260505122518 58 0.0 1.7 0.00 0.00 0.00 75 1015.7
20260505121517 56 0.0 1.7 0.00 0.00 0.00 79 1015.4
20260505120517 55 0.0 1.7 0.00 0.00 0.00 82 1015.4
20260505115537 53 0.0 1.7 0.00 0.00 0.00 82 1015.3
20260505114517 51 0.0 0.9 0.00 0.00 0.00 84 1015.2
20260505113537 51 0.0 1.7 0.00 0.00 0.00 83 1015.3
20260505112517 50 0.0 0.9 0.00 0.00 0.00 84 1015.1
20260505111517 50 0.0 0.9 0.00 0.00 0.00 84 1014.8
20260505110517 49 0.0 0.0 0.00 0.00 0.00 84 1014.6
20260505101517 51 0.0 0.9 0.00 0.00 0.00 80 1014.7
20260505100517 52 0.0 0.0 0.00 0.00 0.00 79 1014.9
20260505095517 52 0.0 1.7 0.00 0.00 0.00 78 1015.1
20260505094516 52 0.0 1.7 0.00 0.00 0.00 78 1015.1
20260505093517 53 0 0.9 0.9 0.00 0.00 0.00 77 1015.2
20260505092516 53 0.0 0.9 0.00 0.00 0.00 74 1015.2
20260505091556 54 0.0 1.7 0.00 0.00 0.00 73 1015.4
20260505090519 55 0.0 0.9 0.00 0.00 0.00 72 1015.4
20260505085521 55 0.0 0.9 0.00 0.00 0.00 71 1015.1
20260505084616 56 0.0 1.7 0.00 0.00 0.00 70 1015.3
20260505083537 57 0.0 0.0 0.00 0.00 0.00 68 1015.2
20260505082516 57 0.0 1.7 0.00 0.00 0.00 67 1015.1
20260505081516 57 0.0 1.7 0.00 0.00 0.00 67 1015.0
20260505080516 58 0.0 2.6 0.00 0.00 0.00 66 1014.8
20260505075536 58 270 0.9 2.6 0.00 0.00 0.00 66 1014.6
20260505074516 58 293 0.9 1.7 0.00 0.00 0.00 66 1014.6
20260505073536 58 293 0.9 3.5 0.00 0.00 0.00 66 1014.7
20260505072516 59 0.0 2.6 0.00 0.00 0.00 65 1014.5
20260505071516 59 203 0.9 2.6 0.00 0.00 0.00 64 1014.5
20260505070517 60 0.0 1.7 0.00 0.00 0.00 64 1014.7
20260505065516 61 180 0.9 1.7 0.00 0.00 0.00 63 1014.6
20260505064556 61 180 0.9 3.5 0.00 0.00 0.00 62 1014.8
20260505063516 62 203 0.9 4.3 0.00 0.00 0.00 61 1014.8
20260505062516 62 180 0.9 2.6 0.00 0.00 0.00 60 1014.8
20260505061536 62 248 1.7 5.2 0.00 0.00 0.00 60 1014.7
20260505060516 62 270 1.7 6.1 0.00 0.00 0.00 59 1014.7
20260505055516 62 315 0.9 3.5 0.00 0.00 0.00 60 1014.6
20260505054516 62 180 0.9 3.5 0.00 0.00 0.00 60 1014.4
20260505053516 62 23 0.9 4.3 0.00 0.00 0.00 60 1014.4
20260505052516 61 338 0.9 4.3 0.00 0.00 0.00 63 1014.2
20260505051556 61 0.0 1.7 0.00 0.00 0.00 63 1014.1
20260505050536 62 203 1.7 4.3 0.00 0.00 0.00 62 1014.1
20260505041536 62 315 0.9 1.7 0.00 0.00 0.00 60 1014.0
20260505040516 62 0.0 2.6 0.00 0.00 0.00 61 1014.1
20260505035537 62 248 0.9 3.5 0.00 0.00 0.00 61 1013.9
20260505034537 62 0.0 2.6 0.00 0.00 0.00 61 1014.1
20260505033517 62 180 1.7 5.2 0.00 0.00 0.00 61 1014.2
20260505032537 62 225 0.9 3.5 0.00 0.00 0.00 62 1014.3
20260505031557 62 0.0 1.7 0.00 0.00 0.00 63 1014.3
20260505030517 62 203 0.9 3.5 0.00 0.00 0.00 63 1014.1
20260505025517 62 180 0.9 2.6 0.00 0.00 0.00 64 1014.2
20260505024516 62 203 0.9 3.5 0.00 0.00 0.00 64 1014.0
20260505023517 61 225 0.9 4.3 0.00 0.00 0.00 64 1014.0
20260505022517 61 180 0.9 2.6 0.00 0.00 0.00 65 1014.0
20260505021517 60 225 0.9 2.6 0.00 0.00 0.00 66 1013.7
20260505020516 59 315 0.9 1.7 0.00 0.00 0.00 67 1013.7
20260505015516 60 0.0 0.9 0.00 0.00 0.00 68 1013.5
20260505014537 60 0.0 0.0 0.00 0.00 0.00 66 1013.6
20260505013516 61 0.0 1.7 0.00 0.00 0.00 64 1013.6
20260505012516 61 315 0.9 0.9 0.00 0.00 0.00 63 1013.5
20260505011537 62 315 0.9 0.9 0.00 0.00 0.00 64 1013.6
20260505010516 63 315 0.9 1.7 0.00 0.00 0.00 61 1013.0
20260505005536 63 338 0.9 0.9 0.00 0.00 0.00 61 1013.2
20260505004516 64 338 0.9 0.9 0.00 0.00 0.00 60 1013.0
20260505003516 65 23 0.9 0.9 0.00 0.00 0.00 59 1012.8
20260505002636 66 293 0.9 0.9 0.00 0.00 0.00 58 1012.8
20260505001516 67 0.0 0.9 0.00 0.00 0.00 56 1012.8
20260505000537 69 0.0 1.7 0.00 0.00 0.00 51 1012.6
20260504235536 70 0.0 1.7 0.00 0.00 0.00 50 1012.8
20260504234516 70 0.0 1.7 0.00 0.00 0.00 48 1012.7
20260504233536 71 248 0.9 2.6 0.00 0.00 0.00 47 1012.6
20260504232516 72 225 1.7 7.0 0.00 0.00 0.00 46 1012.9
20260504231516 73 225 1.7 3.5 0.00 0.00 0.00 44 1012.8
20260504230516 74 225 1.7 5.2 0.00 0.00 0.00 44 1012.8
20260504225536 74 225 1.7 3.5 0.00 0.00 0.00 44 1013.2
20260504224516 74 203 1.7 5.2 0.00 0.00 0.00 45 1013.1
20260504223556 75 203 2.6 6.1 0.00 0.00 0.00 44 1013.3
20260504222523 76 225 3.5 6.1 0.00 0.00 0.00 42 1013.3
20260504221516 76 225 2.6 7.0 0.00 0.00 0.00 45 1013.3
20260504220516 76 270 2.6 7.0 0.00 0.00 0.00 43 1013.2
20260504215516 76 248 1.7 6.1 0.00 0.00 0.00 41 1013.3
20260504214516 76 203 4.3 8.7 0.00 0.00 0.00 41 1013.3
20260504213516 76 225 1.7 4.3 0.00 0.00 0.00 45 1013.4
20260504212516 76 203 2.6 6.1 0.00 0.00 0.00 43 1013.4
20260504211556 76 225 2.6 6.1 0.00 0.00 0.00 43 1013.4
20260504210516 76 225 1.7 4.3 0.00 0.00 0.00 44 1013.5
20260504205516 76 203 3.5 9.6 0.00 0.00 0.00 45 1013.7
20260504204516 76 203 4.3 8.7 0.00 0.00 0.00 44 1013.8
20260504203517 76 248 3.5 11.3 0.00 0.00 0.00 43 1014.0
20260504202516 76 225 4.3 9.6 0.00 0.00 0.00 41 1014.0
20260504201536 76 225 3.5 7.8 0.00 0.00 0.00 42 1014.2
20260504200516 76 225 3.5 13.9 0.00 0.00 0.00 43 1014.3
20260504195515 76 180 3.5 10.4 0.00 0.00 0.00 47 1014.4
20260504194516 75 225 3.5 7.0 0.00 0.00 0.00 47 1014.5
20260504193536 75 293 1.7 4.3 0.00 0.00 0.00 45 1014.5
20260504192536 75 225 2.6 5.2 0.00 0.00 0.00 49 1014.8
20260504191536 74 203 3.5 7.0 0.00 0.00 0.00 48 1015.1
20260504190515 74 225 2.6 6.1 0.00 0.00 0.00 45 1015.5
20260504185516 74 203 2.6 7.8 0.00 0.00 0.00 47 1015.5
20260504184516 73 270 2.6 7.8 0.00 0.00 0.00 49 1015.5
20260504183516 73 270 2.6 8.7 0.00 0.00 0.00 50 1015.8
20260504182515 73 225 3.5 8.7 0.00 0.00 0.00 47 1016.0
20260504181515 73 225 3.5 7.8 0.00 0.00 0.00 50 1015.9
20260504180516 72 203 1.7 3.5 0.00 0.00 0.00 52 1016.2
20260504175515 72 270 2.6 8.7 0.00 0.00 0.00 49 1016.2
20260504174515 71 203 2.6 6.1 0.00 0.00 0.00 53 1016.3
20260504173516 71 248 1.7 4.3 0.00 0.00 0.00 54 1016.4
20260504172515 70 203 2.6 6.1 0.00 0.00 0.00 50 1016.6
20260504171515 70 225 3.5 8.7 0.00 0.00 0.00 50 1016.7
20260504170515 69 203 2.6 5.2 0.00 0.00 0.00 50 1017.0